KDFW

Dallas-Fort Worth International Airport

Airport
ICAO code
KDFW
IATA Code
DFW
Summary
ICAO Region
NAM
ICAO Territory
Location

Dallas, Texas,

Serving
Dallas
Elevation
607 ft
Coordinates
32° 53' 55" N , 97° 2' 25" W
KCC
Airport LOS
Parallel Runway Operation
Metar
Observation
KDFW 282153Z 20017G26KT 10SM BKN039 BKN250 21/12 A2988 RMK AO2 PK WND 20027/2140 SLP113 T02110122 $
Station
Dallas / Fort Worth, Dallas / Fort Worth International Airport
Date/Time
2023-01-28 21:53:00
Wind direction
200°
Wind speed
17 kts
Lowest cloud amount
broken clouds
Temperature
21.1°C
Dew point
12.2°C
Humidity
56%
Weather condition
n/a

Description

Large International airport serving the cities of Dallas and Fort Worth, Texas, USA.

Climatology

Humid “subtropical” climate (Köppen climate classification Cfa) - characterized by hot, humid summers and cool winters. Significant amounts of precipitation occur in all seasons in most areas. Winter rainfall (and sometimes snowfall) is associated with large storms that the westerlies steer from west to east. Most summer rainfall occurs during thunderstorms and occasional tropical storms (hurricanes).

Airport map

Aerial View

SKYbrary Partners:

Safety knowledge contributed by: